Prox-1
1 44339U 19036A   25055.59719610  .00021592  00000-0  29943-2 0  9995
2 44339  23.9989  29.7603 0007196 312.4337  47.5551 14.76436350302469
SONATE
1 44400U 19038Q   25055.59925978  .00092561  00000-0  11139-2 0  9994
2 44400  97.7085  71.2946 0006326 272.4674  87.5858 15.60501072313058
Taurus 1
1 44530U 19059C   25055.80153853  .00017770  00000-0  34515-2 0  9992
2 44530  98.5915 190.4884 0009087 355.1457   4.9654 14.63195132288600
Duchifat 3
1 44854U 19089C   25055.80529181  .00054903  00000-0  15652-2 0  9995
2 44854  36.9480 295.9982 0007052  19.7900 340.3126 15.35034267286776
TO-108
1 44881U 19093C   25055.81235790  .00002809  00000-0  33360-3 0  9996
2 44881  97.8018 133.6420 0013256 210.6720 149.3721 14.85182169280523
FloripaSat 1
1 44885U 19093G   25055.78322724  .00013769  00000-0  12177-2 0  9999
2 44885  97.8202 143.3066 0011095 190.6377 169.4612 14.96382545281064
RS-44
1 44909U 19096E   25055.63600148  .00000024  00000-0  49949-4 0  9991
2 44909  82.5208 297.0254 0217353 180.6939 179.3894 12.79738471241264
UPMSat 2
1 46276U 20061E   25055.45129869  .00063419  00000-0  98051-3 0  9994
2 46276  97.2603 127.3947 0000563 181.1257 178.9996 15.53880431249064
SALSAT
1 46495U 20068K   25055.86079988  .00016111  00000-0  74563-3 0  9994
2 46495  97.8495  29.3018 0012949 155.4311 204.7543 15.20144524242607
CubeSX-Sirius-HSE
1 47951U 21022V   25055.88205282  .00122130  00000-0  18342-2 0  9994
2 47951  97.4330 323.5354 0005528 340.5198  19.5844 15.54443492217393
CubeSX-HSE
1 47952U 21022W   25055.85895606  .00122922  00000-0  18108-2 0  9996
2 47952  97.4328 323.6980 0004978 334.0646  26.0358 15.54974163217400
KSU-Cubesat
1 47954U 21022Y   25055.79630812  .00403676  00000-0  22333-2 0  9990
2 47954  97.4272 328.0232 0002190  81.4364 278.7150 15.78497275217397
GRBAlpha
1 47959U 21022AD  25055.82178234  .00117221  00000-0  17400-2 0  9991
2 47959  97.4315 323.8148 0005377 339.8830  20.2211 15.54783922216227
Orbicraft-Zorkiy
1 47960U 21022AE  25055.81222764  .00189836  00000-0  17539-2 0  9994
2 47960  97.4308 327.0526 0002223   0.5289 359.5974 15.66964145217095
TUBIN
1 48900U 21059X   25055.77007394  .00057722  00000-0  10688-2 0  9990
2 48900  97.6668 217.4355 0005057 266.4551  93.6121 15.48811361203755
LEDSAT
1 49069U 21073D   25055.87752494  .00074022  00000-0  15225-2 0  9996
2 49069  97.4023 134.1843 0012605 102.5320 257.7339 15.45619522195186
CUTE
1 49263U 21088D   25055.47250737  .00024402  00000-0  57463-3 0  9995
2 49263  97.4633 129.0086 0008444 260.9488  99.0804 15.41903440188201
TeikyoSat 4
1 49396U 21102B   25055.59634014  .00005397  00000-0  36510-3 0  9998
2 49396  97.4265  97.7760 0013820 129.8583 230.3863 15.06855793180735
Z-Sat
1 49399U 21102E   25055.84704460  .00010316  00000-0  58617-3 0  9991
2 49399  97.3973 100.5129 0020272 106.2338 254.1125 15.12910031181135
KOSEN 1
1 49402U 21102H   25055.88421856  .00016387  00000-0  80547-3 0  9996
2 49402  97.3880 103.2283 0018032  86.1762 274.1533 15.17969006181390
HO-113
1 50466U 21131B   25055.89114605  .00001658  00000-0  53402-3 0  9997
2 50466  98.5120 145.7816 0005227  93.1616 267.0170 14.40565610166370
IRIS-A
1 51044U 22002BN  25055.67932094  .00113787  00000-0  14043-2 0  9998
2 51044  97.3430 130.9873 0004189 206.7097 153.3945 15.59776411173351
Foresail-1
1 52766U 22057AL  25055.64884725  .00101128  00000-0  12807-2 0  9996
2 52766  97.5982 197.8214 0006812 295.1155  64.9394 15.59120059153387
SNUGLITE 2
1 52899U 22065F   25055.64311047  .00003484  00000-0  69322-3 0  9995
2 52899  98.1487 198.7744 0008546  84.6568 275.5609 14.62681788141148
IO-117
1 53106U 22080B   25051.21822557 -.00000003  00000-0  00000+0 0  9995
2 53106  70.1434 106.3440 0008542  48.0089 312.1297  6.42557744 61200
FO-118
1 54684U 22167C   25055.85465385  .00902955  37340-3  21421-2 0  9998
2 54684  97.6026 220.5859 0010104 296.9912  63.0332 15.96687775123424
SO-120
1 56992U 23084BU  25042.76759540  .17342116  26494-5  33638-3 0  9995
2 56992  97.5047 178.6720 0014759 276.3055  83.6566 16.46134597 93271
UmKA 1 (RS40S)
1 57172U 23091G   25055.88512960  .00014096  00000-0  79197-3 0  9999
2 57172  97.5754 111.8646 0014395 340.9439  19.1251 15.13332064 91638
CubeBel-2 (EU11S)
1 57175U 23091K   25055.88831192  .00019914  00000-0  10308-2 0  9995
2 57175  97.5754 112.4630 0012577 351.1930   8.9080 15.16189472 91677
VERONIKA
1 58261U 23174F   25055.79651629  .00085747  00000-0  17377-2 0  9999
2 58261  97.4267 137.7079 0006545  64.6333 295.5593 15.46067415 72374
KAFASAT
1 58317U 23174BP  25055.87083424  .00296132  00000-0  25587-2 0  9996
2 58317  97.4139 141.3557 0003797 337.8509  22.2588 15.68297130 72644
ENSO
1 58470U 23185J   25055.89424578  .00064993  00000-0  14737-2 0  9992
2 58470  97.3886 128.5988 0008797 100.9278 259.2960 15.42812402 68822
EIRSAT-1
1 58472U 23185L   25055.88689318  .00086920  00000-0  16995-2 0  9990
2 58472  97.3878 129.3304 0007580 101.1441 259.0661 15.47099650 68878
SONATE-2
1 59112U 24043Q   25055.82441452  .00029272  00000-0  99298-3 0  9990
2 59112  97.4972 185.3831 0012327 126.1577 234.0806 15.30411128 54289
MO-122
1 60209U 24125G   25055.53199996  .00031096  00000-0  10409-2 0  9994
2 60209  97.2938 268.5990 0021447 150.6056 209.6396 15.30675594 35858
GRBBeta
1 60237U 24128C   25055.48098525  .00008840  00000-0  69148-3 0  9994
2 60237  61.9921  85.6171 0041843  33.2470 327.1235 15.00996983 34410
Curium One
1 60242U 24128H   25055.52549808  .00013730  00000-0  10259-2 0  9992
2 60242  61.9824  85.0241 0042261  27.9896 332.3454 15.02371851 34433
ROBUSTA-3A
1 60243U 24128J   25055.49931897  .00013791  00000-0  10421-2 0  9990
2 60243  61.9891  85.6239 0040458  25.9354 334.3752 15.02003089 34421
CatSat
1 60246U 24125J   25055.52335722  .00018791  00000-0  68160-3 0  9998
2 60246  97.2723 268.8417 0046819 107.3000 253.3369 15.27323048 33939
HYPERVIEW-1G (RS66S)
1 61772U 24199AP  25055.89478704  .00036408  00000-0  12733-2 0  9991
2 61772  97.3722 285.2836 0014523 201.7825 158.2799 15.29342561 60925
AO-123
1 61781U 24199AY  25055.82291715  .00015339  00000-0  59654-3 0  9993
2 61781  97.3728 284.9351 0015780 203.9267 156.1240 15.26004899 60899
POEM 4 (BGS ARPIT)
1 62461U 24253C   25055.72897827  .00235100  00000-0  90278-3 0  9992
2 62461  55.2196 348.3055 0011123  85.2001 275.0321 15.86194607  8837
HADES-R (SO-124)
1 62690U 25009CK  25055.45989701  .00052704  00000-0  25109-2 0  9996
2 62690  97.4196 137.3741 0003020 109.7812 250.3748 15.18927766  6131
